When you browse on this site, cookies collect data to enhance your experience and personalize the content and advertising you see.
Visit our Privacy Policy to learn more. By continuing to use the site, you agree to this use of cookies and data.
  • In Hungary
  • List of Countries
  • For 7 days
  • Water Temperature
  • Weather Map
  • News
  • Weather Widgets
  • user-avatar
    Login

    Hourly Weather Dubovets'

    Today, 25 August, Sunday

    Time Temperature Precipitation Wind Pressure Humidity
    00:00 +16°C° 0 mm 2 mps 748 mmHg 67%
    01:00 +15°C° 0 mm 2 mps 748 mmHg 66%
    02:00 +15°C° 0 mm 2 mps 748 mmHg 65%
    03:00 +15°C° 0 mm 2 mps 748 mmHg 66%
    04:00 +14°C° 0 mm 2 mps 748 mmHg 67%
    05:00 +14°C° 0 mm 2 mps 748 mmHg 68%
    06:00 +15°C° 0 mm 2 mps 748 mmHg 68%
    07:00 +17°C° 0 mm 2 mps 749 mmHg 67%
    08:00 +18°C° 0 mm 2 mps 749 mmHg 66%
    09:00 +20°C° 0 mm 2 mps 749 mmHg 61%
    10:00 +23°C° 0 mm 2 mps 749 mmHg 56%
    11:00 +24°C° 0 mm 2 mps 749 mmHg 51%
    12:00 +25°C° 0 mm 2 mps 749 mmHg 49%
    13:00 +26°C° 0 mm 2 mps 749 mmHg 46%
    14:00 +26°C° 0 mm 2 mps 749 mmHg 44%
    15:00 +26°C° 0 mm 2 mps 748 mmHg 46%
    16:00 +26°C° 0 mm 2 mps 748 mmHg 49%
    17:00 +26°C° 0 mm 1 mps 748 mmHg 52%
    18:00 +24°C° 0 mm 1 mps 748 mmHg 56%
    19:00 +21°C° 0 mm 2 mps 748 mmHg 59%
    20:00 +19°C° 0 mm 2 mps 748 mmHg 62%
    21:00 +18°C° 0 mm 2 mps 748 mmHg 64%
    22:00 +17°C° 0 mm 2 mps 748 mmHg 66%
    23:00 +17°C° 0 mm 2 mps 748 mmHg 68%

    Tomorrow, 26 August, Monday

    Time Temperature Precipitation Wind Pressure Humidity
    00:00 +16°C° 0 mm 2 mps 748 mmHg 71%
    01:00 +16°C° 0 mm 2 mps 748 mmHg 75%
    02:00 +16°C° 0 mm 2 mps 749 mmHg 79%
    03:00 +15°C° 0 mm 2 mps 748 mmHg 83%
    04:00 +15°C° 0 mm 2 mps 748 mmHg 87%
    05:00 +15°C° 0 mm 2 mps 748 mmHg 90%
    06:00 +17°C° 0 mm 2 mps 748 mmHg 86%
    07:00 +18°C° 0 mm 2 mps 749 mmHg 81%
    08:00 +20°C° 0 mm 2 mps 749 mmHg 76%
    09:00 +22°C° 0 mm 3 mps 749 mmHg 70%
    10:00 +24°C° 0 mm 3 mps 749 mmHg 64%
    11:00 +26°C° 0 mm 3 mps 749 mmHg 58%
    12:00 +27°C° 0 mm 3 mps 749 mmHg 56%
    13:00 +27°C° 0 mm 3 mps 749 mmHg 53%
    14:00 +28°C° 0 mm 3 mps 748 mmHg 50%
    15:00 +28°C° 0 mm 2 mps 748 mmHg 52%
    16:00 +27°C° 0 mm 2 mps 748 mmHg 54%
    17:00 +27°C° 0 mm 2 mps 747 mmHg 56%
    18:00 +25°C° 0 mm 2 mps 747 mmHg 61%
    19:00 +23°C° 0 mm 2 mps 747 mmHg 66%
    20:00 +20°C° 0 mm 2 mps 747 mmHg 71%
    21:00 +20°C° 0 mm 2 mps 747 mmHg 71%
    22:00 +19°C° 0 mm 2 mps 747 mmHg 70%
    23:00 +18°C° 0 mm 2 mps 747 mmHg 70%

    Day after tomorrow, 27 August, Tuesday

    Time Temperature Precipitation Wind Pressure Humidity
    00:00 +18°C° 0 mm 2 mps 747 mmHg 71%
    01:00 +17°C° 0 mm 2 mps 747 mmHg 72%
    02:00 +17°C° 0 mm 2 mps 747 mmHg 73%
    03:00 +16°C° 0 mm 2 mps 747 mmHg 75%
    04:00 +16°C° 0 mm 2 mps 747 mmHg 76%
    05:00 +15°C° 0 mm 2 mps 747 mmHg 77%
    06:00 +18°C° 0 mm 1 mps 747 mmHg 73%
    07:00 +20°C° 0 mm 1 mps 747 mmHg 69%
    08:00 +21°C° 0 mm 1 mps 748 mmHg 65%
    09:00 +23°C° 0 mm 2 mps 748 mmHg 61%
    10:00 +25°C° 0 mm 2 mps 748 mmHg 56%
    11:00 +26°C° 0 mm 2 mps 748 mmHg 51%
    12:00 +27°C° 0 mm 2 mps 748 mmHg 49%
    13:00 +27°C° 0 mm 2 mps 747 mmHg 47%
    14:00 +28°C° 0 mm 2 mps 747 mmHg 45%
    15:00 +28°C° 0 mm 2 mps 747 mmHg 48%
    16:00 +27°C° 0 mm 2 mps 747 mmHg 52%
    17:00 +27°C° 0 mm 2 mps 747 mmHg 55%
    18:00 +25°C° 0 mm 2 mps 747 mmHg 59%
    19:00 +23°C° 0 mm 2 mps 747 mmHg 63%
    20:00 +21°C° 0 mm 1 mps 747 mmHg 67%
    21:00 +20°C° 0 mm 1 mps 747 mmHg 69%
    22:00 +19°C° 0 mm 2 mps 747 mmHg 71%
    23:00 +18°C° 0 mm 2 mps 747 mmHg 74%

    28 August, Wednesday

    Time Temperature Precipitation Wind Pressure Humidity
    00:00 +18°C° 0 mm 1 mps 747 mmHg 75%
    01:00 +18°C° 0 mm 1 mps 747 mmHg 76%
    02:00 +16°C° 0 mm 1 mps 747 mmHg 78%
    03:00 +16°C° 0 mm 1 mps 747 mmHg 80%
    04:00 +16°C° 0 mm 1 mps 747 mmHg 83%
    05:00 +15°C° 0 mm 1 mps 747 mmHg 85%
    06:00 +18°C° 0 mm 1 mps 747 mmHg 81%
    07:00 +20°C° 0 mm 1 mps 747 mmHg 77%
    08:00 +21°C° 0 mm 1 mps 747 mmHg 73%
    09:00 +23°C° 0 mm 2 mps 747 mmHg 68%
    10:00 +24°C° 0 mm 2 mps 747 mmHg 64%
    11:00 +25°C° 0 mm 2 mps 747 mmHg 60%
    12:00 +26°C° 0 mm 3 mps 747 mmHg 56%
    13:00 +26°C° 0 mm 3 mps 747 mmHg 53%
    14:00 +27°C° 0 mm 3 mps 746 mmHg 50%
    15:00 +27°C° 0 mm 3 mps 746 mmHg 52%
    16:00 +26°C° 0 mm 3 mps 746 mmHg 54%
    17:00 +26°C° 0 mm 3 mps 746 mmHg 56%
    18:00 +24°C° 0 mm 3 mps 746 mmHg 59%
    19:00 +21°C° 0 mm 3 mps 746 mmHg 62%
    20:00 +19°C° 0 mm 3 mps 746 mmHg 65%
    21:00 +18°C° 0 mm 3 mps 746 mmHg 66%
    22:00 +17°C° 0 mm 3 mps 746 mmHg 68%
    23:00 +17°C° 0 mm 3 mps 746 mmHg 69%

    29 August, Thursday

    Time Temperature Precipitation Wind Pressure Humidity
    00:00 +16°C° 0 mm 3 mps 746 mmHg 71%
    01:00 +16°C° 0 mm 3 mps 746 mmHg 74%
    02:00 +14°C° 0 mm 3 mps 746 mmHg 76%
    03:00 +14°C° 0 mm 3 mps 746 mmHg 78%
    04:00 +13°C° 0 mm 3 mps 746 mmHg 80%
    05:00 +13°C° 0 mm 3 mps 746 mmHg 82%
    06:00 +14°C° 0 mm 3 mps 746 mmHg 79%
    07:00 +16°C° 0 mm 3 mps 746 mmHg 77%
    08:00 +17°C° 0 mm 3 mps 747 mmHg 74%
    09:00 +19°C° 0 mm 4 mps 747 mmHg 70%
    10:00 +20°C° 0 mm 4 mps 747 mmHg 65%
    11:00 +21°C° 0 mm 4 mps 747 mmHg 60%
    12:00 +22°C° 0 mm 4 mps 747 mmHg 58%
    13:00 +22°C° 0 mm 4 mps 747 mmHg 56%
    14:00 +22°C° 0 mm 4 mps 746 mmHg 54%
    15:00 +22°C° 0 mm 4 mps 746 mmHg 54%
    16:00 +22°C° 0 mm 4 mps 746 mmHg 55%
    17:00 +21°C° 0 mm 3 mps 746 mmHg 56%
    18:00 +19°C° 0 mm 3 mps 746 mmHg 55%
    19:00 +18°C° 0 mm 3 mps 746 mmHg 55%
    20:00 +16°C° 0 mm 3 mps 746 mmHg 54%
    21:00 +14°C° 0 mm 3 mps 746 mmHg 53%
    22:00 +13°C° 0 mm 3 mps 746 mmHg 52%
    23:00 +13°C° 0 mm 3 mps 746 mmHg 51%

    30 August, Friday

    Time Temperature Precipitation Wind Pressure Humidity
    00:00 +12°C° 0 mm 3 mps 746 mmHg 52%
    01:00 +12°C° 0 mm 3 mps 746 mmHg 54%
    02:00 +11°C° 0 mm 3 mps 746 mmHg 55%
    03:00 +11°C° 0 mm 3 mps 746 mmHg 57%
    04:00 +10°C° 0 mm 3 mps 746 mmHg 59%
    05:00 +10°C° 0 mm 3 mps 746 mmHg 61%
    06:00 +11°C° 0 mm 3 mps 746 mmHg 61%
    07:00 +13°C° 0 mm 3 mps 746 mmHg 60%
    08:00 +16°C° 0 mm 3 mps 747 mmHg 59%
    09:00 +17°C° 0 mm 3 mps 747 mmHg 54%
    10:00 +19°C° 0 mm 3 mps 747 mmHg 48%
    11:00 +21°C° 0 mm 3 mps 747 mmHg 43%
    12:00 +22°C° 0 mm 3 mps 747 mmHg 41%
    13:00 +24°C° 0 mm 3 mps 746 mmHg 39%
    14:00 +24°C° 0 mm 3 mps 746 mmHg 37%
    15:00 +24°C° 0 mm 3 mps 746 mmHg 41%
    16:00 +24°C° 0 mm 2 mps 746 mmHg 44%
    17:00 +24°C° 0 mm 2 mps 746 mmHg 47%
    18:00 +21°C° 0 mm 2 mps 746 mmHg 50%
    19:00 +18°C° 0 mm 3 mps 746 mmHg 53%
    20:00 +16°C° 0 mm 3 mps 746 mmHg 56%
    21:00 +16°C° 0 mm 3 mps 746 mmHg 55%
    22:00 +14°C° 0 mm 3 mps 746 mmHg 54%
    23:00 +13°C° 0 mm 3 mps 746 mmHg 54%
    Show more